This demonstration page uses our WeatherBlox Daily Observations layout. Learn more.

Hourly Observations for January 24, 2019

Temp ( °F °C ) Dew Point ( °F °C ) Humidity (%) Winds ( mph kmh ) Pressure ( in mb ) Visibility ( mi km ) Precip ( " mm )
12:15 am 00:15 Partly Cloudy 31 -0.3 26 -3.4 80 80 WNW 9 15 30.09 1019 10 16.09344 0 0
12:35 am 00:35 Mostly Cloudy 32 -0.1 26 -3.3 79 79 WNW 12 19 30.09 1019 10 16.09344 0 0
12:55 am 00:55 Cloudy 32 -0.2 26 -3.4 79 79 WNW 10 17 30.12 1020 10 16.09344 0 0
1:15 am 01:15 Mostly Cloudy 32 -0.2 26 -3.5 79 79 NW 9 15 30.12 1020 10 16.09344 0 0
1:35 am 01:35 Partly Cloudy 31 -0.7 25 -3.7 80 80 NW 10 17 30.12 1020 10 16.09344 0 0
1:55 am 01:55 Clear 30 -1.1 25 -4 81 81 NW 8 13 30.12 1020 10 16.09344 0 0
2:15 am 02:15 Clear 28 -2.3 23 -4.9 83 83 NW 5 7 30.18 1022 10 16.09344 0 0
2:35 am 02:35 Clear 29 -1.8 23 -4.8 80 80 NNW 8 13 30.15 1021 10 16.09344 0 0
2:55 am 02:55 Clear 29 -1.7 23 -4.8 80 80 N 7 11 30.15 1021 10 16.09344 0 0
3:15 am 03:15 Mostly Cloudy 28 -2 23 -4.8 81 81 N 7 11 30.18 1022 10 16.09344 0 0
3:35 am 03:35 Cloudy 30 -0.9 25 -4 80 80 N 9 15 30.15 1021 10 16.09344 0 0
3:55 am 03:55 Cloudy 31 -0.3 25 -3.7 78 78 N 16 26 30.15 1021 10 16.09344 0 0
4:15 am 04:15 Cloudy 32 -0.2 23 -5 70 70 N 25 41 30.15 1021 10 16.09344 0 0
4:35 am 04:35 Cloudy 30 -1 22 -5.3 73 73 N 24 39 30.18 1022 10 16.09344 0 0
4:55 am 04:55 Cloudy 29 -1.5 21 -6.2 71 71 N 22 35 30.18 1022 10 16.09344 0 0
5:15 am 05:15 Cloudy 28 -2 20 -6.5 72 72 N 23 37 30.24 1024 10 16.09344 0 0
5:35 am 05:35 Cloudy 28 -2.5 19 -7.5 69 69 N 24 39 30.24 1024 10 16.09344 0 0
5:55 am 05:55 Cloudy 27 -2.9 18 -7.7 70 70 N 15 24 30.24 1024 10 16.09344 0 0
6:15 am 06:15 Cloudy 26 -3.2 18 -7.7 71 71 N 14 22 30.24 1024 10 16.09344 0 0
6:35 am 06:35 Mostly Cloudy 26 -3.3 18 -8 70 70 N 12 19 30.27 1025 10 16.09344 0 0
6:55 am 06:55 Mostly Cloudy 26 -3.2 19 -7.4 73 73 N 10 17 30.3 1026 10 16.09344 0 0
7:15 am 07:15 Cloudy 26 -3.6 18 -7.6 74 74 N 17 28 30.3 1026 10 16.09344 0 0
7:35 am 07:35 Cloudy 25 -4 18 -7.9 75 75 N 21 33 30.33 1027 10 16.09344 0 0
7:55 am 07:55 Cloudy 23 -5.1 15 -9.6 71 71 N 21 33 30.36 1028 10 16.09344 0 0
8:15 am 08:15 Cloudy 21 -6.1 10 -12.5 61 61 N 24 39 30.42 1030 10 16.09344 0 0
8:35 am 08:35 Mostly Cloudy 19 -7.1 8 -13.1 63 63 N 26 43 30.42 1030 10 16.09344 0 0
8:55 am 08:55 Partly Cloudy 18 -7.8 8 -13.2 66 66 N 22 35 30.45 1031 10 16.09344 0 0
9:15 am 09:15 Sunny 19 -7.5 9 -12.6 67 67 N 15 24 30.45 1031 10 16.09344 0 0
9:35 am 09:35 Partly Cloudy 19 -7.1 10 -12.3 67 67 NNW 21 33 30.48 1032 10 16.09344 0 0
9:55 am 09:55 Mostly Cloudy 17 -8.2 7 -13.9 64 64 N 22 35 30.48 1032 10 16.09344 0 0
10:15 am 10:15 Partly Cloudy 19 -7.4 8 -13.1 64 64 N 13 20 30.48 1032 10 16.09344 0 0
10:35 am 10:35 Sunny 17 -8.1 8 -13.3 67 67 N 15 24 30.48 1032 10 16.09344 0 0
10:55 am 10:55 Sunny 19 -7 7 -13.7 59 59 N 20 31 30.48 1032 10 16.09344 0 0
11:15 am 11:15 Sunny 19 -7 7 -14 58 58 N 22 35 30.48 1032 10 16.09344 0 0
11:35 am 11:35 Sunny 19 -7 6 -14.6 55 55 N 21 33 30.48 1032 10 16.09344 0 0
11:55 am 11:55 Sunny 20 -6.9 6 -14.5 55 55 N 18 30 30.5 1033 10 16.09344 0 0
12:15 pm 12:15 Sunny 21 -6.3 6 -14.4 53 53 NNW 18 30 30.5 1033 10 16.09344 0 0
12:35 pm 12:35 Sunny 21 -6.1 4 -15.4 48 48 NNW 23 37 30.48 1032 10 16.09344 0 0
12:55 pm 12:55 Mostly Cloudy with Scattered Snow Showers 21 -6 5 -15.1 49 49 NNW 18 30 30.48 1032 0.5 0.804672 0 0
1:15 pm 13:15 Sunny 22 -5.8 6 -14.7 50 50 NNW 18 30 30.48 1032 10 16.09344 0 0
1:35 pm 13:35 Sunny 22 -5.7 6 -14.7 49 49 NW 18 30 30.48 1032 10 16.09344 0 0
1:55 pm 13:55 Sunny 23 -5.1 4 -15.3 45 45 NW 23 37 30.45 1031 N/A 0.03 0.762
2:15 pm 14:15 undefined N/A N/A N/A undefined N/A N/A N/A 0 0
2:35 pm 14:35 Hazy 23 -5.1 4 -15.3 45 45 NNW 16 26 30.42 1030 5 8.04672 0 0
2:55 pm 14:55 Sunny 23 -4.9 5 -15 45 45 NW 16 26 30.42 1030 10 16.09344 0 0
3:15 pm 15:15 Sunny 24 -4.5 6 -14.5 46 46 NNW 16 26 30.42 1030 10 16.09344 0 0
3:35 pm 15:35 Sunny 24 -4.5 6 -14.5 46 46 NW 14 22 30.42 1030 10 16.09344 0 0
3:55 pm 15:55 Sunny 24 -4.2 6 -14.4 45 45 WNW 15 24 30.42 1030 10 16.09344 0 0
4:15 pm 16:15 Sunny 25 -4 7 -14.1 46 46 NW 14 22 30.42 1030 10 16.09344 0 0
4:35 pm 16:35 Sunny 25 -4.1 7 -13.9 47 47 NW 16 26 30.42 1030 10 16.09344 0 0
4:55 pm 16:55 Sunny 25 -4 8 -13.2 49 49 WNW 15 24 30.42 1030 10 16.09344 0 0
5:15 pm 17:15 Sunny 24 -4.4 9 -13 52 52 NW 10 17 30.39 1029 10 16.09344 0 0
5:35 pm 17:35 Sunny 23 -5.1 9 -12.6 56 56 NW 7 11 30.39 1029 10 16.09344 0 0
5:55 pm 17:55 Clear 20 -6.6 9 -12.6 63 63 NW 6 9 30.42 1030 10 16.09344 0 0
6:15 pm 18:15 Clear 18 -7.6 9 -12.6 68 68 W 3 6 30.42 1030 10 16.09344 0 0
6:35 pm 18:35 Clear 19 -7.5 10 -12 70 70 Calm 30.42 1030 10 16.09344 0 0
6:55 pm 18:55 Clear 19 -7.5 10 -12 70 70 Calm 30.42 1030 10 16.09344 0 0
7:15 pm 19:15 Clear 18 -8 10 -12.5 70 70 Calm 30.42 1030 10 16.09344 0 0
7:35 pm 19:35 Clear 17 -8.4 9 -12.6 72 72 Calm 30.39 1029 10 16.09344 0 0
7:55 pm 19:55 Clear 16 -9 9 -12.9 74 74 Calm 30.39 1029 10 16.09344 0 0
8:15 pm 20:15 Clear 15 -9.5 9 -12.7 78 78 S 3 6 30.42 1030 10 16.09344 0 0
8:35 pm 20:35 Clear 15 -9.4 9 -13 75 75 S 3 6 30.42 1030 10 16.09344 0 0
8:55 pm 20:55 Clear 15 -9.3 9 -12.6 77 77 SSE 3 6 30.42 1030 10 16.09344 0 0
9:15 pm 21:15 Clear 14 -9.8 9 -13 78 78 S 6 9 30.42 1030 10 16.09344 0 0
9:35 pm 21:35 Clear 13 -10.5 8 -13.1 81 81 S 5 7 30.42 1030 10 16.09344 0 0
9:55 pm 21:55 Clear 13 -10.5 8 -13.3 80 80 S 6 9 30.42 1030 10 16.09344 0 0
10:15 pm 22:15 Clear 13 -10.4 8 -13.2 80 80 S 6 9 30.39 1029 10 16.09344 0 0
10:35 pm 22:35 Clear 14 -9.8 8 -13.1 77 77 SSE 6 9 30.39 1029 10 16.09344 0 0
10:55 pm 22:55 Clear 14 -10.1 8 -13.3 78 78 S 8 13 30.39 1029 10 16.09344 0 0
11:15 pm 23:15 Clear 16 -8.7 10 -12.2 76 76 S 7 11 30.36 1028 10 16.09344 0 0
11:35 pm 23:35 Clear 16 -8.7 11 -11.8 79 79 S 8 13 30.33 1027 10 16.09344 0 0
11:55 pm 23:55 Clear 17 -8.5 11 -11.8 77 77 S 7 11 30.36 1028 10 16.09344 0 0

Powered by AerisWeather